Location: ??
(35.3149°N, 139.6204°E)
Time: 04:56:12
(UTC+00:00)

SJ 16-02 - Visible Passes

Search period start: 11 November 2024 00:00
Search period end: 21 November 2024 00:00
Orbit: 591 x 601 km, 75.0° (Epoch: 10 November)

Date Brightness Start Highest point End Pass type
(mag) Time Alt. Az. Time Alt. Az. Time Alt. Az.
12 Nov 1.6 07:54:22 10° SSW 07:58:37 71° WNW 08:02:55 10° NNE visible
13 Nov 2.8 08:04:49 10° SW 08:08:49 39° WNW 08:12:52 10° N visible
14 Nov 3.7 08:15:42 10° WSW 08:19:04 23° WNW 08:22:30 10° NNW visible
15 Nov 4.1 08:27:17 10° W 08:29:25 13° WNW 08:31:33 10° NNW visible
